CAPE
1084 1248 1495 1736 1922 2036 2163 2165 2120 2154 2136 2168 2078 2099 2003 1940 1903 1839 1493 1328 1281 1112 1033 916 860 761 567 671 467 509 586 652 750 817 904 996 992 1002 946 1122 1130 1598 1281 1621 1811 1790 1551 1704 1752 1686 1711 1950 1968 1116 852 899 1162 783 957 785 778 741
862 1038 1283 1532 1816 1921 2055 2058 2000 1949 2038 2051 2058 2007 1932 1928 1766 1652 1550 1296 1116 1246 1009 904 837 952 916 734 502 585 725 730 790 853 957 1001 982 1018 975 961 1058 922 1493 1606 1771 1791 1673 1703 1757 1814 1861 1873 1596 1005 960 1063 1336 936 640 463 690 1082
548 687 1043 1352 1598 1804 1932 1920 1916 1910 1986 2136 2104 2053 1903 1905 1712 1595 1482 1270 1282 1118 996 922 1008 1263 1101 894 624 613 726 894 860 1038 1008 1070 1042 999 1009 1024 1156 1237 1353 1631 1545 1354 1240 1277 1147 1640 2187 1535 853 1199 1158 1292 1340 763 669 758 732 1474
284 451 783 1116 1404 1678 1787 1838 1791 1838 1914 1882 1973 1866 1826 1791 1668 1575 1444 1274 1526 1454 1010 969 1531 1674 1212 968 855 761 783 893 905 1066 1168 1049 1293 1082 1141 987 1083 1116 1117 924 461 804 1203 1635 1464 1201 902 570 515 514 1228 1279 1330 775 790 1209 970 1662
491 453 569 866 1219 1416 1619 1669 1666 1766 1793 1780 1876 1770 1789 1817 1645 1481 1262 1372 1501 1796 1824 1196 1452 1313 1009 858 874 886 803 709 823 900 1114 973 1009 879 1085 564 293 338 110 32 107 761 1324 1453 1615 1457 1242 1249 894 673 1076 1151 796 887 1034 1029 1194 1843
569 535 519 636 869 1162 1527 1530 1679 1703 1764 1815 1829 1712 1846 1885 1799 1633 1632 1637 1576 1906 1885 1528 1568 1200 964 1022 1006 1015 953 875 843 796 1026 848 708 210 187 82 0 0 0 0 0 0 677 959 1347 1497 1305 1313 1182 1172 1201 1187 896 778 1005 956 1452 1811
683 601 535 457 511 880 1231 1342 1526 1659 1779 1826 1806 1781 1843 1882 1966 1863 1712 1617 1893 1944 1724 1522 1433 1242 1252 1092 1022 936 938 956 966 823 839 650 762 618 641 598 268 0 0 234 0 0 0 48 832 1382 1350 1328 1219 1266 1256 1014 978 740 933 852 1564 2122
779 664 506 185 227 626 842 1078 1345 1585 1686 1834 1843 1795 1768 1858 2003 1897 2011 1742 2374 1844 1599 1495 1635 1572 1466 1182 1059 1065 975 1011 1097 1049 1093 732 677 983 730 672 625 497 390 487 485 16 0 0 138 897 1389 1258 1237 1276 1170 857 670 806 837 798 1466 2221
859 708 395 135 184 300 524 838 1056 1460 1632 1840 1751 1757 1676 1806 1920 1918 2210 2170 2257 1860 1309 1394 1323 1494 1573 1387 1294 1283 1220 1144 1214 1200 1214 1067 650 1011 953 732 571 250 544 482 489 19 1 0 0 342 1040 541 901 1145 1159 986 716 684 874 852 1300 1793
832 653 163 190 174 167 164 593 765 1114 1441 1497 1599 1558 1491 1727 1784 2010 2021 2070 1867 1618 2039 1077 1075 950 928 1236 1745 1669 1479 1382 1379 1242 1382 1120 692 1365 1724 1303 1367 1372 1197 803 862 1103 1028 930 792 152 112 87 65 208 746 902 765 691 948 949 930 1392
804 443 206 214 166 188 240 376 490 1084 1103 1122 1216 1339 1228 1430 1599 1690 1613 1370 1296 1130 1027 1834 965 1505 1642 1677 1566 1803 1712 1431 1470 1559 1785 1857 1424 1435 1432 1551 1840 1615 1490 1636 1483 1349 1199 1130 1049 943 852 782 501 1041 901 914 848 770 752 1172 1078 1103
762 341 194 156 312 530 369 437 504 927 900 899 1050 1100 1136 1239 1313 1271 1223 1226 1010 1017 1366 1759 1665 1380 1647 1836 1804 1867 1732 1500 1709 2240 2234 1965 1778 1643 1987 2020 2098 1819 1599 1695 1609 1484 1308 1282 1190 1002 906 844 840 820 676 650 718 759 934 1088 1210 1290
838 311 103 98 655 394 606 521 606 821 697 1048 1044 870 928 1151 1230 1199 1029 979 1305 1459 1758 1733 1607 1709 1892 2073 1738 1837 1612 1626 1654 1923 1985 1970 1863 2138 2066 2084 2003 1825 1718 1751 1654 1548 1291 1344 1390 1251 1022 1013 1022 930 908 848 708 768 887 953 1193 1242
615 141 141 608 722 349 392 387 675 752 732 1054 927 806 840 1162 1042 1080 1212 1144 1546 1616 1726 1818 1879 1592 1440 1785 1904 1851 1959 1972 1848 1636 1964 1805 1727 2157 2023 1939 1804 1794 2076 1813 1674 1580 1348 1181 1208 1287 1126 1164 1180 1196 1112 955 830 826 826 871 953 1371
492 440 638 684 648 397 237 559 592 626 717 909 766 1063 1224 1242 1256 1228 1568 1595 1665 1773 1748 1935 1940 2089 1977 1792 1937 1851 2004 1786 1777 1597 1911 1972 1948 1980 1907 1756 1780 1776 1680 1706 1688 1574 1513 1374 1175 1205 1268 1306 1323 1238 1066 1160 1112 1056 1006 920 1052 1074
639 724 568 663 815 467 374 572 536 878 607 759 1092 1192 1340 1319 1354 1385 1575 1740 1753 1840 1708 1651 1875 2165 2110 1726 1749 1683 1793 1733 1639 1610 1734 1668 1957 1631 1477 1506 1530 1554 1254 1270 1380 1496 1288 1416 1383 1428 1427 1388 1374 1371 1354 1196 1363 1408 1383 1209 1076 1097
761 720 636 874 906 680 714 831 806 500 748 1241 1240 1311 1449 1510 1482 1478 1663 1808 1726 1760 1729 1630 1696 2008 1615 1607 1602 1580 1598 1531 1341 1278 2130 1470 1569 1436 1266 1099 867 1232 1439 1353 1108 1135 1253 1404 1510 1494 1439 1554 1461 1558 1536 1744 1716 1664 1552 1427 1294 1263
856 674 735 1057 854 928 1229 967 616 533 1276 1471 1410 1418 1419 1354 1331 1332 1689 1718 1798 1819 1821 1715 1684 1469 1380 1584 1711 1671 1448 1450 1279 1409 1297 1267 1178 1255 1414 1362 1317 1322 1209 1225 1397 1540 1382 1400 1451 1550 1475 1376 1328 1474 1678 1793 1799 1754 1690 1622 1541 1489
807 596 838 1111 906 1162 1119 1032 984 1022 1184 1370 1242 1101 1071 1035 997 1030 1127 1561 1875 1684 1956 1615 1409 1633 1427 1336 1193 1328 1425 1193 1389 1484 1337 1554 1497 1521 1470 1333 1279 1204 1214 1419 1423 1526 1575 1543 1480 1399 1412 1423 1389 1326 1394 1543 1667 1657 1616 1592 1494 1426
704 620 954 1051 936 1038 997 1012 810 779 1124 1346 1228 947 1026 963 1034 984 907 1122 1586 1625 1721 1453 1594 1590 1407 1112 1259 1375 1687 1242 1215 1226 1492 1464 1176 1036 1193 1404 1487 1491 1440 1316 1392 1431 1396 1466 1547 1428 1332 1332 1352 1323 1257 1220 1231 1395 1537 1621 1679 1691
691 778 917 957 860 904 951 953 760 661 837 1190 1148 1074 1078 1134 937 940 757 862 1251 1652 1471 1644 1636 1408 1076 1632 1525 1202 1362 1472 1414 1190 1088 1240 1430 1387 1459 1374 1385 1415 1319 1185 1157 1060 1334 1447 1310 1187 1163 1120 1079 1026 1024 1098 1148 1223 1429 1567 1635 1720
792 812 892 819 779 801 880 912 902 787 565 1063 1020 1184 1026 1036 943 888 828 865 1296 1508 1703 1435 1574 1436 1360 1286 1290 1366 1616 1420 1282 1741 1647 1492 1447 1403 1253 1220 1235 1157 1126 1072 1085 1118 1154 1148 1128 1095 1054 1098 1014 996 854 683 884 1090 1206 1330 1566 1661
756 786 846 722 711 784 734 759 880 783 726 883 1004 1122 1131 932 874 801 765 1067 1281 1848 1452 1244 1828 1437 1462 1506 1501 1781 1812 1840 1780 1662 1478 1441 1313 1333 1386 1421 1402 1333 1284 1257 1173 1182 1202 1130 1094 1053 928 976 959 780 786 620 893 828 808 1334 1605 1645
776 792 788 661 651 645 789 744 801 687 854 980 1019 1129 1087 748 837 774 672 1343 1352 1886 1450 1277 1669 1708 1656 1802 1617 1632 1724 1574 1718 1422 1103 1365 1549 1507 1192 1097 946 880 1244 1278 1301 1210 1190 1114 1084 948 1010 886 909 938 821 642 627 608 457 843 1353 1711
771 805 768 674 607 551 718 734 825 855 913 966 936 1035 645 731 854 762 896 1375 1658 1892 1842 1503 1868 1568 1531 1761 1606 1484 1180 1102 1210 1727 1619 1173 1023 951 927 815 722 683 672 880 898 953 853 853 880 1004 915 937 956 684 533 692 669 524 700 627 468 452
857 776 760 735 565 484 753 706 844 928 782 710 748 723 581 748 792 685 1254 1628 1716 1813 1716 1568 1564 1547 1260 1254 1192 1071 994 1037 1070 1006 963 887 850 795 644 758 794 733 714 699 660 681 650 680 594 539 1020 994 857 724 653 629 400 610 447 384 318 512
864 815 880 736 632 649 894 776 919 852 565 645 529 666 620 690 907 983 1603 1876 1612 1826 1562 1478 1322 1244 1168 1078 1052 970 902 819 842 934 901 835 705 850 929 886 813 673 677 754 763 638 660 592 566 523 506 590 777 778 698 497 438 413 513 421 379 164
954 936 876 789 723 681 845 919 892 718 566 642 544 638 549 794 1224 1459 1669 1887 1585 1505 1436 1174 1265 1110 1058 970 792 825 879 862 779 686 621 487 502 503 598 645 667 742 713 689 671 697 646 636 571 453 421 418 456 422 592 568 470 471 460 311 232 122
1118 1120 1012 849 905 871 956 944 835 648 678 797 895 821 746 1050 1302 1347 1347 1424 1436 1337 1152 1215 1271 956 796 710 595 581 594 606 563 419 404 371 370 376 368 377 506 435 433 335 558 655 620 603 520 459 491 483 404 346 101 127 316 407 237 247 244 133
1243 1306 1129 984 899 930 877 825 737 644 658 688 811 876 909 993 1138 934 801 905 1284 1194 1132 1103 935 804 731 597 596 549 504 435 375 310 267 240 244 184 132 154 215 202 249 287 366 453 475 512 553 574 518 460 350 331 46 42 68 236 264 208 243 209
1258 1313 1164 1104 964 923 876 837 830 654 778 769 790 758 780 770 773 663 580 1128 1226 1255 1102 1255 930 764 660 530 452 448 430 382 292 207 120 108 91 89 62 58 76 106 166 223 267 329 371 406 498 487 449 422 372 314 277 242 211 42 246 288 258 155
1259 1240 1274 1110 1024 1029 897 871 814 652 901 874 665 611 486 511 848 790 736 812 880 1031 1004 858 703 579 466 368 304 164 43 28 55 59 62 45 38 25 20 26 17 30 203 249 324 359 377 435 366 234 163 242 332 276 254 252 267 248 236 191 201 178
1287 1275 1205 1084 1030 974 1026 874 821 774 768 724 522 599 653 675 910 934 775 647 864 979 919 756 584 442 347 283 259 176 9 4 2 3 6 0 0 1 4 6 14 29 209 292 351 446 398 362 353 315 173 242 265 270 286 251 114 188 214 215 195 192
1337 1277 1168 1106 1045 974 1105 870 787 727 734 715 515 622 534 556 631 560 742 839 924 823 733 590 381 316 280 247 110 1 0 0 0 0 0 0 0 0 0 0 0 1 15 92 265 327 318 371 314 223 230 242 284 158 229 182 154 238 235 202 201 139
1354 1198 1166 1047 1067 1067 1076 807 633 490 497 513 399 458 495 459 438 602 751 920 894 766 573 366 303 231 0 0 0 0 0 0 0 0 0 0 0 0 0 0 0 0 0 1 8 95 252 294 192 205 189 281 199 48 2 18 145 216 217 203 173 216
1328 1126 1091 992 1151 1219 1025 651 394 366 371 143 327 320 441 490 482 583 780 883 918 782 519 365 320 244 0 0 0 0 0 0 0 0 0 0 0 0 0 0 0 0 0 0 12 101 180 163 127 150 192 156 126 6 0 1 68 187 212 238 203 190
1217 1091 1099 1063 1263 1156 742 408 411 396 394 43 134 434 539 532 546 690 781 879 858 572 293 232 223 11 0 0 0 0 0 1 0 0 0 0 1 6 7 2 0 0 0 2 6 52 99 18 45 96 133 111 100 90 10 0 0 39 198 256 239 220
Wind_Speed
23 22 21 21 20 21 22 27 24 24 25 23 22 22 21 22 20 20 18 19 17 13 12 12 15 15 20 15 17 16 16 16 16 15 13 12 12 12 12 13 14 14 14 15 17 18 20 20 20 19 18 16 15 14 15 13 10 16 16 14 15 14
23 22 21 20 19 19 20 22 19 18 17 19 20 20 18 16 17 14 18 17 13 12 12 12 13 17 14 15 15 17 15 15 15 15 14 14 13 13 14 14 14 15 14 14 16 17 18 20 21 21 20 18 15 15 14 13 13 18 16 14 14 17
23 22 22 20 19 19 20 19 19 17 15 17 18 18 16 16 15 15 14 14 12 11 11 11 12 15 14 17 15 17 16 15 14 14 14 14 14 14 14 14 15 15 14 13 14 17 18 19 19 20 20 19 18 16 15 15 15 18 19 17 15 21
23 23 22 20 20 20 19 19 18 16 14 15 15 16 15 15 15 14 14 12 10 11 10 10 15 20 19 14 15 18 18 17 16 14 14 12 12 13 13 13 14 14 13 13 15 16 18 19 19 20 19 19 19 18 17 16 16 18 20 21 18 24
24 24 22 21 22 20 19 20 17 15 15 14 15 15 14 14 14 14 14 11 9 8 8 11 10 13 14 15 14 14 15 14 14 13 16 12 12 12 13 12 12 13 13 nan 13 16 18 19 20 20 21 20 20 19 18 17 16 17 19 20 20 25
25 23 22 22 22 21 21 19 17 16 16 14 15 15 14 14 15 14 13 12 10 8 7 12 14 14 14 14 15 16 16 17 16 16 16 16 15 15 14 nan nan nan nan nan nan nan 16 18 20 21 21 20 20 20 19 16 14 16 17 19 22 28
25 23 24 23 22 21 20 18 18 17 16 15 15 15 14 15 16 16 13 12 10 8 10 13 13 13 13 13 14 15 16 17 18 18 18 19 18 18 18 17 17 nan nan 15 nan nan nan nan 18 21 22 22 21 20 20 18 16 17 16 18 20 28
24 24 24 23 23 21 19 20 19 18 17 16 15 15 15 16 17 16 13 11 10 10 11 13 12 11 12 13 13 14 15 16 17 18 19 21 20 19 20 20 19 18 19 18 17 nan nan nan 16 19 21 22 22 22 21 20 18 18 18 18 19 24
24 25 24 23 22 21 21 21 20 19 18 16 15 15 16 17 17 15 14 12 10 11 12 13 11 10 12 12 12 14 14 16 16 16 18 19 20 20 20 21 20 21 22 22 22 nan nan nan nan 16 18 19 20 21 21 21 20 21 19 20 20 21
25 25 25 23 22 21 21 21 21 20 18 17 15 16 17 18 17 17 15 12 12 14 13 11 10 8 11 13 14 13 14 12 13 15 18 17 17 16 17 17 18 19 19 19 18 15 15 14 10 12 13 nan nan 18 20 19 18 18 21 21 20 19
24 25 25 23 21 21 23 21 21 21 19 17 18 19 19 19 19 18 17 15 15 14 15 13 12 12 12 12 11 10 10 10 10 10 14 15 14 13 12 12 14 15 14 15 17 17 16 14 13 11 12 15 16 17 19 20 19 19 19 21 21 20
24 26 25 22 21 22 24 23 22 23 21 19 21 21 21 20 20 19 19 18 18 17 16 16 16 13 13 13 11 9 8 9 8 9 12 12 11 12 13 12 12 12 13 14 12 12 13 13 12 12 13 13 15 16 19 19 20 21 20 21 22 23
25 27 24 nan 22 24 26 24 24 23 21 22 22 21 20 21 22 21 20 19 20 19 18 18 17 15 14 14 12 10 9 8 9 9 11 12 12 12 12 12 11 12 12 13 13 11 11 12 12 12 12 11 14 17 17 18 18 18 19 20 23 24
26 26 25 23 24 27 27 25 26 24 23 24 23 22 22 24 24 22 21 20 20 19 19 18 16 15 14 14 12 10 10 9 9 10 11 12 12 13 13 13 14 13 13 13 14 13 11 10 11 11 12 14 14 16 18 19 20 21 22 21 22 23
26 26 25 25 26 29 27 27 27 26 25 26 25 24 25 26 24 22 22 21 20 19 18 18 16 15 14 13 12 11 10 10 10 11 12 13 14 12 13 14 15 15 15 15 16 16 14 13 13 13 14 14 15 15 18 18 19 20 21 22 23 23
26 27 27 27 27 29 28 27 27 26 26 26 26 26 27 25 25 23 22 20 19 18 18 16 15 15 14 13 12 11 11 11 11 12 12 11 14 13 13 14 15 17 16 15 16 15 15 14 13 13 14 16 18 18 18 19 20 21 21 22 23 23
26 27 27 27 28 27 26 25 25 26 26 27 27 27 28 28 28 25 22 20 18 17 17 15 15 15 14 13 12 12 11 14 14 12 11 13 13 13 13 14 14 14 18 19 17 15 13 13 13 15 15 16 17 19 20 21 22 22 22 23 23 24
26 26 26 26 25 24 23 24 24 25 24 26 26 26 26 29 31 26 22 19 18 18 17 16 15 15 15 14 14 12 11 14 14 14 13 12 12 12 14 16 16 16 18 18 17 16 14 13 13 13 14 15 16 19 21 22 23 23 25 23 23 24
25 25 25 25 25 26 26 26 24 24 25 25 24 24 25 28 27 25 20 18 18 18 16 15 15 15 15 15 15 13 14 15 15 14 13 13 12 12 12 13 16 16 17 19 20 18 16 15 14 13 13 14 15 17 19 21 23 24 25 25 26 26
25 24 25 27 27 24 24 24 23 23 26 24 24 24 22 22 23 23 22 20 17 17 16 14 14 15 15 15 15 15 12 14 15 14 13 12 11 12 13 14 14 17 16 17 18 19 17 16 16 15 14 15 16 17 18 20 22 24 25 25 26 27
23 24 26 26 24 23 24 23 22 24 24 22 25 23 22 21 21 22 22 18 13 15 14 13 13 16 15 15 16 15 15 15 15 14 14 13 12 12 12 14 14 17 17 17 18 18 18 19 16 15 16 16 15 17 18 19 21 23 25 26 26 27
23 24 24 23 23 23 21 21 21 22 23 23 24 23 21 20 21 19 20 19 9 13 13 12 14 15 16 15 15 15 15 15 14 17 17 16 15 13 13 13 15 13 17 18 18 18 16 18 19 18 15 14 15 16 18 20 20 21 22 24 26 27
22 23 22 23 23 23 21 22 22 22 25 24 22 22 21 21 21 21 19 20 7 13 13 13 15 15 15 15 15 15 15 14 16 17 17 16 15 14 14 14 15 16 15 19 20 20 22 25 21 18 18 19 17 17 18 20 22 22 21 22 25 26
24 23 23 22 23 23 24 25 26 26 25 23 22 22 21 20 23 23 21 18 10 16 14 13 14 14 15 16 16 16 15 18 18 18 18 17 16 16 16 17 17 16 19 18 21 20 21 23 26 22 20 22 19 20 17 21 19 17 19 19 22 22
25 23 22 22 23 24 25 27 27 27 26 26 25 22 20 20 21 20 20 17 12 15 17 14 14 15 15 16 16 16 17 17 18 18 19 19 18 18 18 19 19 20 20 21 21 22 22 21 22 27 25 22 21 22 23 20 18 18 23 21 19 18
28 26 24 23 23 24 24 26 27 26 25 26 25 21 19 19 20 18 17 15 13 17 18 17 17 16 19 19 19 18 18 18 19 18 18 19 19 19 19 19 20 23 22 22 24 24 23 22 23 21 26 28 27 23 20 22 22 20 24 26 23 23
26 27 26 25 23 23 24 24 24 24 25 26 26 22 21 19 20 19 22 18 16 18 18 19 19 19 19 20 19 16 16 17 18 19 18 19 18 18 19 20 21 21 22 23 24 23 22 22 22 24 25 26 29 27 28 27 24 22 18 25 29 25
25 25 25 25 23 22 23 22 23 24 25 27 27 25 24 20 21 25 25 21 20 21 19 18 19 20 18 18 17 17 18 17 17 17 18 18 19 18 19 19 21 23 23 24 24 23 22 23 24 22 24 23 24 26 29 29 28 27 23 19 18 26
25 23 23 25 24 22 22 21 22 24 26 25 27 27 25 23 26 29 28 20 19 20 19 19 18 19 20 21 21 19 19 18 17 16 17 18 18 20 21 21 22 23 24 23 24 24 25 22 23 21 22 24 24 24 26 28 29 31 28 23 21 22
22 22 22 23 24 23 23 22 24 24 26 26 27 26 26 24 24 27 25 16 17 19 18 18 19 21 22 21 20 19 18 17 16 17 18 19 20 20 21 22 23 23 23 24 23 24 23 23 24 24 25 24 25 24 nan nan nan 30 28 28 24 20
19 20 21 21 22 24 24 23 23 22 23 26 26 26 25 24 23 26 23 15 16 16 15 17 20 22 22 21 20 19 18 17 17 18 18 19 nan nan nan nan nan 21 22 22 22 23 24 24 25 26 26 27 26 26 25 25 25 nan 30 26 22 22
18 19 21 20 21 22 23 22 21 21 24 26 27 25 23 25 24 26 23 15 15 17 16 18 20 22 22 21 20 18 nan nan nan nan nan nan nan nan nan nan nan nan 20 21 22 23 24 25 25 25 27 27 27 27 27 27 27 29 29 27 25 21
17 19 20 19 19 19 19 19 20 21 24 27 29 26 24 26 23 26 24 20 16 17 17 20 21 23 21 20 19 19 nan nan nan nan nan nan nan nan nan nan nan nan 21 21 22 24 24 25 25 25 25 27 27 28 28 29 30 30 29 28 27 22
17 19 18 17 16 15 15 16 15 17 20 24 28 25 22 23 24 24 21 20 19 18 19 19 21 22 21 20 20 nan nan nan nan nan nan nan nan nan nan nan nan nan nan nan 23 24 24 25 25 24 26 27 29 29 28 28 28 30 29 29 27 25
21 20 18 16 14 13 14 14 13 14 17 20 24 24 23 23 24 23 24 24 22 20 21 21 22 21 nan nan nan nan nan nan nan nan nan nan nan nan nan nan nan nan nan nan nan nan 24 25 25 25 26 27 28 nan nan nan 28 27 28 29 27 26
20 20 17 15 13 13 14 14 14 15 14 16 19 21 21 19 24 24 22 22 22 22 23 23 21 21 nan nan nan nan nan nan nan nan nan nan nan nan nan nan nan nan nan nan nan 23 24 26 27 26 28 28 29 nan nan nan nan 27 28 29 28 27
19 17 15 14 13 14 15 15 15 16 14 nan 13 13 17 23 27 23 20 21 23 23 23 22 20 nan nan nan nan nan nan nan nan nan nan nan nan nan nan nan nan nan nan nan nan nan nan nan nan nan 29 29 nan nan nan nan nan nan 27 28 28 28
Wind_Direction
287 290 286 283 283 286 293 298 296 301 303 302 299 297 294 294 292 295 295 298 299 301 305 313 324 337 341 351 351 349 349 351 351 351 352 351 355 0 5 9 13 13 18 17 20 27 34 40 39 38 36 38 44 31 25 20 5 337 350 350 341 341
287 290 286 282 281 282 284 286 285 289 290 295 295 292 285 279 286 277 293 293 292 302 306 314 328 336 344 351 350 350 352 354 354 353 353 355 355 359 6 11 14 18 18 18 18 19 25 34 38 36 33 31 31 31 27 24 357 338 343 353 343 337
288 287 284 282 281 279 278 276 280 280 281 288 290 285 274 280 270 275 276 284 294 298 307 321 325 336 340 341 346 350 352 356 357 354 358 358 357 0 6 11 15 20 17 17 12 15 19 21 26 34 29 22 22 28 28 32 0 348 341 349 348 340
288 285 283 282 280 277 274 276 278 277 277 279 279 277 274 272 272 270 276 282 292 299 310 316 333 334 336 336 345 349 354 355 357 359 1 359 1 3 9 14 16 17 15 14 11 11 12 15 17 20 17 17 17 24 28 32 7 353 341 345 347 345
284 283 282 281 281 278 275 276 277 275 276 276 277 277 274 271 269 270 273 276 281 283 297 309 312 308 316 333 342 349 353 353 351 352 358 350 352 356 359 3 3 7 9 nan 13 10 3 6 9 12 13 15 15 18 22 25 16 350 344 341 347 347
284 282 280 279 281 281 279 277 277 276 274 274 278 277 274 271 268 269 266 271 276 280 281 291 299 309 321 333 345 350 352 352 351 355 353 353 353 352 351 nan nan nan nan nan nan nan 8 1 359 5 8 10 13 14 17 17 11 354 344 341 346 349
284 281 279 277 278 279 275 276 275 274 274 275 276 277 275 272 268 266 264 265 275 282 280 290 298 308 323 333 343 349 351 353 354 356 354 353 356 354 351 351 352 nan nan 350 nan nan nan nan 356 1 4 7 6 11 14 8 5 351 348 344 348 350
283 280 278 279 279 277 274 275 272 277 275 277 279 278 276 273 268 266 261 264 264 274 280 286 296 309 321 331 341 343 351 353 356 358 353 353 356 354 353 350 349 349 349 350 355 nan nan nan 10 4 3 5 2 5 9 1 355 348 349 347 347 350
280 280 277 278 277 274 273 271 269 273 274 275 279 280 279 275 271 268 261 259 259 268 276 284 296 312 318 328 334 339 349 356 353 356 353 357 352 354 354 351 348 347 345 346 351 nan nan nan nan 1 5 1 358 360 1 358 354 348 352 347 346 349
280 277 276 275 273 272 272 270 270 276 275 273 280 279 276 275 274 269 267 264 262 257 257 271 290 301 304 316 313 324 339 348 350 352 351 358 350 343 342 342 338 334 332 333 329 329 331 341 345 345 358 nan nan 357 352 349 351 353 346 347 346 345
276 274 273 274 273 272 271 271 271 270 272 272 272 270 275 274 273 272 271 265 259 256 252 260 278 279 282 287 291 299 314 325 328 340 330 342 340 329 329 325 322 319 320 322 328 329 325 329 336 344 349 349 348 339 341 339 341 341 339 345 343 343
267 273 273 273 271 269 271 275 271 268 272 270 266 267 272 275 273 272 266 265 260 255 253 253 256 265 276 277 281 286 299 306 315 321 320 330 336 336 331 333 329 328 326 320 319 318 321 323 329 337 341 340 342 347 351 347 346 344 339 338 344 344
260 271 271 nan 264 267 270 274 268 269 268 266 268 269 273 268 269 271 267 265 259 256 254 255 258 260 264 273 283 289 294 303 314 325 332 333 331 334 333 334 337 332 331 327 318 319 319 318 323 333 336 346 337 340 343 340 342 339 341 340 338 342
260 268 266 259 259 266 271 268 266 269 266 270 272 269 267 265 269 271 266 263 259 258 257 257 259 262 265 269 277 284 298 305 314 321 330 333 336 338 343 342 344 338 340 333 329 328 322 325 329 327 335 337 333 339 340 339 341 343 341 342 340 338
255 259 258 257 257 263 265 263 265 267 269 271 271 269 268 268 270 270 265 263 260 259 259 260 260 264 267 272 279 288 298 316 317 323 327 337 341 344 345 350 347 344 340 331 331 329 329 333 334 338 338 334 334 333 333 339 337 336 339 341 342 338
250 254 256 256 255 261 264 264 269 270 272 274 276 276 274 273 272 267 263 261 259 258 258 261 265 268 271 277 284 292 308 310 314 316 336 337 335 342 349 348 349 342 341 340 335 331 325 325 325 332 335 335 334 332 339 343 337 336 339 338 337 335
251 254 256 257 260 264 270 274 277 280 281 281 284 283 282 279 271 262 257 257 255 255 258 262 265 270 275 280 284 293 301 300 303 306 316 323 328 338 345 347 346 345 337 341 337 333 325 316 315 319 323 326 330 332 336 337 335 337 336 338 336 335
250 255 258 262 268 271 272 276 277 279 275 274 276 277 273 267 252 238 243 251 252 254 254 257 260 269 273 273 272 275 286 291 293 300 311 315 328 333 339 344 348 345 342 338 337 334 329 320 313 311 313 317 322 324 330 333 336 335 338 337 336 334
254 259 261 265 262 258 259 257 260 268 271 271 274 274 275 273 267 244 216 237 246 248 249 256 258 264 269 263 262 262 277 291 287 293 301 313 323 327 331 340 347 349 340 340 339 338 336 328 318 314 315 319 318 324 328 330 334 337 336 338 339 338
257 260 257 256 257 260 260 261 267 261 260 263 267 270 269 267 258 256 244 207 229 242 244 249 255 262 265 262 259 257 263 282 283 287 296 307 314 319 326 325 335 340 338 332 332 336 334 328 320 316 318 317 321 325 329 332 332 335 337 337 339 334
259 257 260 264 263 267 266 261 255 259 266 267 274 271 268 263 252 248 252 235 198 241 238 245 253 260 264 260 262 261 265 269 275 282 285 295 305 309 308 310 318 323 326 325 328 329 330 325 318 315 310 310 311 317 325 330 335 335 337 336 333 333
253 260 263 265 266 263 263 266 269 272 270 271 277 280 274 267 262 257 259 253 208 238 242 247 250 258 263 266 266 262 266 271 276 281 284 285 288 292 291 294 301 309 314 316 323 321 316 305 311 311 302 302 309 314 321 322 328 323 327 330 333 334
250 258 258 256 260 262 256 260 261 268 275 271 270 272 269 267 267 266 258 257 238 252 249 248 252 259 265 267 267 267 268 275 281 282 284 287 292 295 300 306 312 319 319 315 317 319 315 310 317 309 318 312 308 295 305 307 314 318 322 329 333 335
246 249 253 254 256 257 260 257 256 263 261 264 274 272 267 263 262 260 250 243 251 259 255 253 256 264 264 267 269 266 268 273 283 287 290 293 296 303 304 303 302 308 313 311 309 312 308 311 313 308 304 309 314 309 309 311 313 319 319 324 323 328
250 251 256 259 262 264 264 260 261 260 259 262 262 261 265 261 259 255 240 235 252 252 251 256 253 262 266 265 266 268 271 274 277 283 291 297 302 306 307 307 308 305 303 307 302 308 309 304 306 317 313 307 307 310 315 319 311 327 318 310 319 329
247 248 256 258 263 265 268 272 271 271 270 268 271 273 279 281 266 253 244 240 250 248 251 251 250 250 258 258 257 259 264 269 274 282 290 298 302 303 305 303 306 305 302 304 305 303 305 307 307 310 316 318 317 320 315 315 314 319 320 329 336 329
254 252 252 256 261 264 267 270 272 275 277 280 281 271 264 258 253 240 238 244 253 245 249 253 252 255 253 255 258 261 266 272 276 281 288 293 298 306 310 308 306 300 303 303 299 298 302 309 304 308 305 309 316 320 323 316 318 320 325 324 328 328
269 266 259 259 261 262 268 268 268 267 268 271 273 270 268 262 253 235 231 242 242 242 244 248 253 255 258 260 262 259 262 265 270 276 285 292 298 299 297 299 299 301 300 299 299 300 304 304 304 312 311 308 310 314 319 321 322 324 326 328 332 329
275 274 272 269 266 264 266 269 268 269 266 265 265 263 262 258 259 253 230 197 234 239 242 243 247 252 250 254 255 257 258 261 267 276 285 288 291 293 296 298 298 296 299 300 301 305 304 308 308 311 305 307 307 309 310 316 318 318 321 324 333 331
275 275 281 283 274 269 273 272 270 265 267 266 262 258 259 258 262 258 234 175 226 235 239 243 243 249 252 253 255 257 260 264 271 276 283 287 289 293 296 298 302 301 301 300 304 305 308 313 313 311 310 311 307 306 nan nan nan 311 316 327 333 330
280 275 286 289 281 276 277 275 275 274 273 272 266 263 256 255 262 248 228 187 227 231 237 245 247 250 253 253 254 258 263 268 275 281 285 288 nan nan nan nan nan 299 301 303 305 305 305 310 311 312 311 312 312 310 310 309 311 nan 315 320 327 333
274 280 287 288 280 273 272 273 275 277 276 274 269 262 256 254 253 248 236 222 219 227 234 241 247 251 250 253 257 260 nan nan nan nan nan nan nan nan nan nan nan nan 300 302 303 303 304 304 304 307 308 309 309 308 308 310 311 315 317 324 328 334
283 286 288 286 276 267 269 276 282 281 279 274 267 263 254 249 250 251 248 240 225 229 236 240 245 251 251 256 261 262 nan nan nan nan nan nan nan nan nan nan nan nan 296 298 302 300 301 304 305 305 306 307 306 305 306 310 311 312 317 321 326 332
295 291 286 280 267 264 268 275 280 289 291 281 270 261 250 250 250 246 243 248 243 240 239 243 248 251 256 259 260 nan nan nan nan nan nan nan nan nan nan nan nan nan nan nan 297 299 302 303 302 304 305 304 302 303 304 306 310 311 315 318 322 327
291 286 282 272 256 253 257 266 273 285 294 289 276 253 236 237 238 234 241 251 251 245 241 239 246 250 nan nan nan nan nan nan nan nan nan nan nan nan nan nan nan nan nan nan nan nan 298 297 295 294 298 300 300 nan nan nan 305 309 313 316 321 325
283 275 271 262 247 246 251 261 272 281 287 287 269 247 235 226 219 228 249 257 251 244 240 240 243 251 nan nan nan nan nan nan nan nan nan nan nan nan nan nan nan nan nan nan nan 296 295 293 291 291 292 292 296 nan nan nan nan 306 310 316 319 321
281 266 258 251 241 243 256 267 276 280 272 nan 251 240 236 227 226 242 256 248 246 246 241 241 247 nan nan nan nan nan nan nan nan nan nan nan nan nan nan nan nan nan nan nan nan nan nan nan nan nan 290 286 nan nan nan nan nan nan 308 311 316 320